Showing default

FLOCK 4Q 22, 58306

Orbit data source: Space-Track

FLOCK 4Q 22, 58306 is a payload satellite owned by Planet (US) in SSO that was launched on Sat, 11 Nov 2023 UTC via an FALCON 9 launch vehicle from the Air Force Western Test Range (AFWTR). Payload-class satellites include a variety of spacecraft equipped with specific instruments for various scientific and technological missions. These include communications satellites like Starlink; space stations such as the ISS; scientific satellites like the Hubble; Earth observation satellites from companies like Planet Labs, Umbra, and HawkEye 360; GPS; miniature CubeSats for education and research; and military/defense satellites.

Loading next visibility...
Identifier
58306, 2023-174BC
Orbit
SSO
Country
Flag of USUS
Related business
Manufacturer
Planet
Mission
Non-operational Commercial Imaging
Bus & Motor
CUBESAT 3U, Unknown motor
Mass
5.7 kg wet, 5.7 kg dry
Launch date (UTC)
2023-11-11 (3 years ago)
Launch vehicle
FALCON 9
Launch site
Air Force Western Test Range (AFWTR)
Object type
Payload
Rocket body
Debris
Shape & HBR
Box + 2 Pan, 1.0 m
Radar Cross Section
0.072 m², Medium (>0.1 m² and < 1m²)

Expand to show TLE details & history
Last TLE update: 2 days ago

TLE from 2 days ago
0 FLOCK 4Q 22
1 58306U 23174BC  26171.23645275  .00097506  00000-0  11393-2 0  9996
2 58306  97.3812 263.6464 0004172 140.1226 220.0339 15.61268647146348
Epoch: 2026-06-20T05:40Z
TLE epoch observation values (Epoch: 2026-06-20T05:40:29.517Z)
Latitude
Longitude
-89.93056°
Altitude
389.299 km
Speed
7.675 km/s
True Right ascension
17h 34m 35s
True Declination
0° 00' 00"
Sunlit
Object was in full shadow at epoch
Visualization orbit readout
Latitude
Unknown
Longitude
Unknown
Altitude
Unknown
Speed
Unknown
Apparent Right ascension
Unknown
Apparent Declination
Unknown
Sunlit
N/A
Visualization observer readout
Local Sidereal Time
21:38:41
Azimuth
Unknown
Elevation
Unknown
Doppler factor
Unknown
Orbital elements
Apogee altitude
383.721 km
Perigee altitude
378.082 km
Semi-major axis
6,759.038 km
Eccentricity
0.00042
Inclination
97.3812°
RAAN
263.6464°
Arg. of periapsis
140.1226°
True anomaly
220.00316°
Mean anomaly
220.0339°
Eccentric anomaly
220.01853°
Mean motion
3.90585 °/min
Orbital period
92.17 mins
BSTAR
0.0011393
Loading maneuver chart data...
Computing Atmospheric mass density...

Documentation

Showing up to 5 results
|